This demonstration page uses our WeatherBlox Daily Observations layout. Learn more.

Left ArrowRight Arrow

Hourly Observations for May 7, 2022

Temp ( °F °C ) Dew Point ( °F °C ) Humidity (%) Winds ( mph kmh ) Pressure ( in mb ) Visibility ( mi km ) Precip ( " mm )
12:53 am 00:53 Cloudy 50 10 45 7.2 83 83 W 9 15 29.49 999 10 16 0.02 0.51
1:53 am 01:53 Mostly Cloudy 48 8.9 45 7.2 89 89 SSW 8 13 29.46 998 10 16 0.00 0.00
2:53 am 02:53 Cloudy 48 8.9 46 7.8 93 93 SW 8 13 29.43 997 10 16 0.00 0.00
3:53 am 03:53 Cloudy with Rain 48 8.9 47 8.3 96 96 SW 8 13 29.43 997 5 8 0.06 1.52
4:53 am 04:53 Cloudy 49 9.4 46 7.8 90 90 S 9 15 29.41 996 10 16 0.01 0.25
5:53 am 05:53 Cloudy 49 9.4 46 7.8 90 90 S 12 19 29.38 995 10 16 0.00 0.00
6:53 am 06:53 Cloudy 49 9.4 46 7.8 90 90 W 8 13 29.40 996 10 16 0.00 0.00
7:53 am 07:53 Cloudy 50 10 47 8.3 89 89 SW 12 19 29.40 996 10 16 0.00 0.00
8:53 am 08:53 Mostly Sunny 52 11.1 46 7.8 80 80 SW 12 19 29.41 996 10 16 0.00 0.00
9:53 am 09:53 Cloudy 53 11.7 43 6.1 69 69 WSW 17 28 29.42 996 10 16 0.00 0.00
10:53 am 10:53 Cloudy 55 12.8 42 5.6 62 62 WSW 17 28 29.41 996 10 16 0.00 0.00
11:53 am 11:53 Cloudy 57 13.9 34 1.1 42 42 WNW 12 19 29.40 996 10 16 0.00 0.00
12:53 pm 12:53 Cloudy with Light Rain 52 11.1 39 3.9 61 61 W 30 48 29.45 997 10 16 0.01 0.25
1:53 pm 13:53 Cloudy 51 10.6 41 5 69 69 W 13 20 29.47 998 10 16 0.00 0.00
2:53 pm 14:53 Cloudy 52 11.1 38 3.3 59 59 NW 17 28 29.47 998 10 16 0.00 0.00
3:53 pm 15:53 Cloudy 52 11.1 38 3.3 59 59 WNW 16 26 29.47 998 10 16 0.00 0.00
4:53 pm 16:53 Mostly Cloudy 57 13.9 33 0.6 41 41 NNW 17 28 29.46 998 10 16 0.00 0.00
5:53 pm 17:53 Mostly Sunny 58 14.4 34 1.1 41 41 WNW 10 17 29.47 998 10 16 0.00 0.00
6:53 pm 18:53 Mostly Cloudy 56 13.3 34 1.1 44 44 WSW 10 17 29.47 998 10 16 0.00 0.00
7:53 pm 19:53 Partly Cloudy 55 12.8 31 -0.6 40 40 W 15 24 29.49 999 10 16 0.00 0.00
8:53 pm 20:53 Clear 49 9.4 31 -0.6 50 50 W 9 15 29.50 999 10 16 0.00 0.00
9:53 pm 21:53 Clear 46 7.8 32 0 58 58 W 10 17 29.51 999 10 16 0.00 0.00
10:53 pm 22:53 Partly Cloudy 44 6.7 32 0 63 63 Calm 29.52 1000 10 16 0.00 0.00
11:53 pm 23:53 Clear 41 5 31 -0.6 67 67 SSW 8 13 29.52 1000 10 16 0.00 0.00

Powered by AerisWeather